Flag for Canada Weather past 2 weeks in Moncton, New Brunswick, Canada

Now
59 °F

Mostly cloudy.


Feels Like: 58 °F
Forecast: 53 / 69 °F
Wind: 7 mph from South

Location: Moncton

Current Time: May 28, 2015 at 11:27:48 PM

Latest Report: May 28, 2015 at 11:00 PM


Visibility: 15 mi

Pressure: 30.10 "Hg

Humidity: 100%

Dew point: 59 °F

Location of MonctonLocation

Historic Weather in Moncton — Graph

°F

Moncton temperature yesterday

Maximum temperature yesterday: 84 °F (at 2:00 PM)
Minimum temperature yesterday: 54 °F (at 6:00 AM)
Average temperature yesterday: 67 °F

Past Weeks' High & Low Weather Summary

 TemperatureHumidityPressure
High84 °F (May 25, 3:00 PM)100% (May 17, 11:00 PM)30.34 "Hg (May 17, 11:00 PM)
Low34 °F (May 14, 4:00 AM)19% (May 16, 3:00 PM)29.41 "Hg (May 20, 5:00 PM)
Average56 °F63%30.00 "Hg
* Reported May 13 10:00 PM — May 28 10:00 PM, Moncton, Weather by CustomWeather, © 2015

Note: Actual official high and low records may vary slightly from our data, if they occured in-between our weather recording intervals... More about our weather records

Advertising

Moncton weather history for previous 24 hours

 ConditionsComfort  
Time TempWeatherWind HumidityBarometerVisibility
10:00 PM
Thu, May 28
61 °FMostly cloudy.6 mph94%30.08 "Hg15 mi
9:52 PM61 °FMostly cloudy.5 mph94%30.07 "Hg15 mi
9:00 PM66 °FSprinkles. Mostly cloudy.8 mph88%30.04 "Hg15 mi
8:00 PM68 °FSprinkles. More clouds than sun.9 mph83%30.04 "Hg10 mi
7:00 PM72 °FPartly sunny.13 mph69%30.03 "Hg15 mi
6:00 PM72 °FPartly sunny.17 mph73%30.01 "Hg15 mi
5:00 PM77 °FScattered clouds.18 mph61%29.97 "Hg15 mi
4:00 PM81 °FScattered clouds.17 mph58%29.96 "Hg15 mi
3:00 PM81 °FBroken clouds.15 mph54%29.97 "Hg15 mi
2:00 PM79 °FPartly sunny.12 mph54%29.99 "Hg15 mi
1:00 PM77 °FPartly sunny.14 mph57%30.00 "Hg15 mi
12:00 PM75 °FPartly sunny.14 mph65%30.01 "Hg15 mi
11:00 AM73 °FScattered clouds.13 mph69%30.01 "Hg15 mi
10:00 AM72 °FScattered clouds.14 mph73%30.01 "Hg15 mi
9:00 AM64 °FPartly sunny.10 mph78%30.02 "Hg15 mi
8:00 AM61 °FPartly sunny.8 mph83%30.02 "Hg15 mi
7:00 AM57 °FPartly sunny.9 mph94%30.01 "Hg15 mi
6:00 AM57 °FPassing clouds.9 mph94%30.00 "Hg15 mi
5:00 AM55 °FPartly cloudy.10 mph94%29.99 "Hg15 mi
4:00 AM57 °FPassing clouds.9 mph88%29.97 "Hg15 mi
3:00 AM57 °FOvercast.10 mph94%29.96 "Hg15 mi
2:00 AM61 °FOvercast.13 mph88%29.98 "Hg15 mi
1:00 AM63 °FPassing clouds.16 mph88%30.00 "Hg15 mi
12:00 AM64 °FOvercast.16 mph83%30.02 "Hg15 mi
11:00 PM
Wed, May 27
64 °FPassing clouds.15 mph83%30.02 "Hg15 mi
Weather by CustomWeather, © 2015

See weather overviewHow to use our weather pages